Location: Normandy Village
(37.8755°N, 122.2655°W)
Time: 01:33:33
(UTC+00:00)

SKYMED 2 - Pass Details

Date: 22 September 2019
Orbit: 621 x 623 km, 97.9° (Epoch: 16 October)

Event Time Altitude Azimuth Distance (km) Brightness Sun altitude
Rises 13:15:20 0° 161° (SSE) 2,888 7.1 -9.0°
Reaches altitude 10° 13:17:31 10° 159° (SSE) 1,986 6.3 -8.6°
Maximum altitude 13:21:49 72° 76° (ENE) 657 3.9 -7.7°
Drops below altitude 10° 13:26:09 10° 352° (N) 2,000 6.2 -6.9°
Sets 13:28:21 0° 351° (N) 2,910 7.0 -6.4°
